Santa Rosa, CA

12:09 AM PST on December 06, 2019 (GMT -0800)
Sonoma County

Weather History for KSTS - October, 2019

Change the Weather History Date:

Thursday, October 24, 2019

  Actual Average Record
Temperature  
Mean Temperature 74 °F 59 °F  
Max Temperature 94 °F 74 °F 94 °F (2019)
Min Temperature 53 °F 44 °F 37 °F (1999)
Degree Days  
Heating Degree Days 0    
Month to date heating degree days 105  
Since 1 July heating degree days 141  
Cooling Degree Days 9    
Month to date cooling degree days 25  
Year to date cooling degree days 565  
Growing Degree Days 26 (Base 50)    
Moisture  
Dew Point 26 °F    
Average Humidity 30    
Maximum Humidity 51    
Minimum Humidity 8    
Precipitation  
Precipitation 0.00 in 0.10 in 2.04 in (2010)
Month to date precipitation 0.02 1.29  
Year to date precipitation 38.54 23.82  
Sea Level Pressure  
Sea Level Pressure 30.00 in    
Wind  
Wind Speed 5 mph (NNE)    
Max Wind Speed 18 mph    
Max Gust Speed 23 mph    
Visibility 10 miles    
Events      
T = Trace of Precipitation, MM = Missing Value Source: NWS Daily Summary

Daily Weather History Graph

Daily Weather History Graph

Search for Another Location

Airport or City:

Astronomy

Oct. 24, 2019 Rise Set
Actual Time 7:29 AM PDT 6:21 PM PDT
Civil Twilight 7:02 AM PDT 6:48 PM PDT
Nautical Twilight 6:31 AM PDT 7:19 PM PDT
Astronomical Twilight 6:00 AM PDT 7:49 PM PDT
Moon 3:10 AM PDT (10/24) 4:48 PM PDT (10/24)
Length of Visible Light 11h 45m
Length of Day
10h 51m
Waning Crescent, 16% of the Moon is Illuminated
Oct 24
Waning Crescent
Oct 27
New
Nov 4
First Quarter
Nov 12
Full
Nov 19
Last Quarter

Hourly Weather History & Observations

Time (PDT) Temp. Dew Point Humidity Pressure Visibility Wind Dir Wind Speed Gust Speed Precip Events Conditions
12:53 AM 75.0 °F 17.1 °F 11% 29.93 in 10.0 mi North 10.4 mph - N/A   Clear
1:53 AM 66.9 °F 21.0 °F 17% 29.92 in 10.0 mi NE 5.8 mph - N/A   Clear
2:53 AM 75.9 °F 17.1 °F 11% 29.93 in 10.0 mi North 11.5 mph - N/A   Clear
3:53 AM 77.0 °F 18.0 °F 11% 29.94 in 10.0 mi NNE 10.4 mph - N/A   Clear
4:53 AM 71.1 °F 19.9 °F 14% 29.95 in 10.0 mi Calm Calm - N/A   Clear
5:53 AM 64.9 °F 23.0 °F 20% 29.95 in 10.0 mi NW 5.8 mph - N/A   Clear
6:53 AM 60.1 °F 25.0 °F 26% 29.97 in 10.0 mi Calm Calm - N/A   Clear
7:53 AM 66.0 °F 23.0 °F 20% 29.98 in 10.0 mi North 9.2 mph - N/A   Smoke
8:53 AM 75.9 °F 27.0 °F 16% 30.01 in 10.0 mi North 5.8 mph - N/A   Smoke
9:53 AM 82.9 °F 19.9 °F 10% 30.03 in 10.0 mi NE 5.8 mph - N/A   Smoke
10:53 AM 87.1 °F 19.9 °F 8% 30.03 in 10.0 mi ENE 9.2 mph - N/A   Smoke
11:53 AM 91.0 °F 21.0 °F 8% 30.03 in 10.0 mi NNE 6.9 mph - N/A   Smoke
12:53 PM 91.9 °F 23.0 °F 8% 30.01 in 10.0 mi Variable 4.6 mph - N/A   Smoke
1:53 PM 93.0 °F 25.0 °F 9% 30.00 in 10.0 mi Variable 5.8 mph - N/A   Smoke
2:53 PM 93.0 °F 26.1 °F 9% 29.99 in 10.0 mi SE 6.9 mph - N/A   Smoke
3:53 PM 93.0 °F 25.0 °F 9% 29.99 in 10.0 mi ESE 5.8 mph - N/A   Smoke
4:53 PM 91.0 °F 28.9 °F 11% 29.99 in 10.0 mi South 5.8 mph - N/A   Smoke
5:53 PM 84.9 °F 30.9 °F 14% 29.99 in 10.0 mi SSE 3.5 mph - N/A   Smoke
6:53 PM 78.1 °F 30.9 °F 18% 30.00 in 10.0 mi Calm Calm - N/A   Smoke
7:53 PM 70.0 °F 33.1 °F 26% 30.02 in 10.0 mi West 3.5 mph - N/A   Smoke
8:53 PM 63.0 °F 37.9 °F 40% 30.04 in 10.0 mi Calm Calm - N/A   Smoke
9:53 PM 63.0 °F 37.9 °F 40% 30.05 in 10.0 mi North 3.5 mph - N/A   Smoke
10:53 PM 59.0 °F 39.9 °F 49% 30.06 in 10.0 mi West 3.5 mph - N/A   Smoke
11:53 PM 57.9 °F 39.0 °F 49% 30.08 in 10.0 mi NNW 3.5 mph - N/A   Smoke